Flag for U.S.A. Weather past 2 weeks in Madison, Wisconsin, U.S.A.

Now
59 °F

Passing clouds.


Feels Like: 57 °F
Forecast: 42 / 72 °F
Wind: 9 mph from Southeast

Location: Dane County Regional-Truax Field

Current Time: Jun 1, 2015 at 8:56:55 PM

Latest Report: Jun 1, 2015 at 7:53 PM


Visibility: 10 mi

Pressure: 30.20 "Hg

Humidity: 32%

Dew point: 29 °F

Location of MadisonLocation

Historic Weather in Madison — Graph

°F

Madison temperature yesterday

Maximum temperature yesterday: 62 °F (at 2:53 PM)
Minimum temperature yesterday: 38 °F (at 4:53 AM)
Average temperature yesterday: 51 °F

Past Weeks' High & Low Weather Summary

 TemperatureHumidityPressure
High82 °F (May 28, 3:53 PM)97% (May 25, 3:53 AM)30.32 "Hg (May 25, 3:53 AM)
Low38 °F (May 31, 4:53 AM)25% (May 23, 3:53 PM)29.64 "Hg (May 26, 4:53 PM)
Average60 °F65%30.06 "Hg
* Reported May 17 7:53 PM — Jun 1 7:53 PM, Madison, Weather by CustomWeather, © 2015

Note: Actual official high and low records may vary slightly from our data, if they occured in-between our weather recording intervals... More about our weather records

Advertising

Madison weather history for previous 24 hours

 ConditionsComfort  
Time TempWeatherWind HumidityBarometerVisibility
7:53 PM
Mon, Jun 1
59 °FPassing clouds.9 mph32%30.20 "Hg10 mi
6:53 PM63 °FPassing clouds.10 mph28%30.20 "Hg10 mi
5:53 PM64 °FPassing clouds.8 mph26%30.20 "Hg10 mi
4:53 PM65 °FPassing clouds.10 mph27%30.21 "Hg10 mi
3:53 PM66 °FPassing clouds.15 mph28%30.22 "Hg10 mi
2:53 PM65 °FPassing clouds.13 mph32%30.23 "Hg10 mi
1:53 PM65 °FPassing clouds.8 mph39%30.24 "Hg10 mi
12:53 PM63 °FSunny.16 mph41%30.26 "Hg10 mi
11:53 AM61 °FSunny.9 mph46%30.27 "Hg10 mi
10:53 AM58 °FSunny.9 mph50%30.29 "Hg10 mi
9:53 AM55 °FPassing clouds.9 mph53%30.30 "Hg10 mi
8:53 AM52 °FScattered clouds.9 mph61%30.31 "Hg10 mi
7:53 AM48 °FScattered clouds.8 mph68%30.31 "Hg10 mi
6:53 AM45 °FPassing clouds.3 mph76%30.30 "Hg10 mi
5:53 AM39 °FPassing clouds.3 mph89%30.29 "Hg10 mi
4:53 AM41 °FClear.No wind80%30.27 "Hg10 mi
3:53 AM41 °FClear.No wind80%30.26 "Hg10 mi
2:53 AM44 °FClear.3 mph71%30.25 "Hg10 mi
1:53 AM44 °FClear.3 mph73%30.25 "Hg10 mi
12:53 AM45 °FClear.3 mph71%30.25 "Hg10 mi
11:53 PM
Sun, May 31
46 °FClear.5 mph68%30.27 "Hg10 mi
10:53 PM46 °FPassing clouds.6 mph71%30.26 "Hg10 mi
9:53 PM48 °FPassing clouds.5 mph63%30.25 "Hg10 mi
8:53 PM51 °FPassing clouds.6 mph54%30.24 "Hg10 mi
Weather by CustomWeather, © 2015

See weather overviewHow to use our weather pages